Flag for Romania Weather past 2 weeks in Timișoara, Romania

Now
30 °F

Clear.


Feels Like: 27 °F
Forecast: 34 / 51 °F
Wind: 3 mph from East

Location: Timisoara Airport

Current Time: Mar 4, 2015 at 1:40:16 AM

Latest Report: Mar 4, 2015 at 1:00 AM


Visibility: 10 mi

Pressure: 30.30 "Hg

Humidity: 93%

Dew point: 28 °F

Location of TimișoaraLocation

Historic Weather in Timișoara — Graph

°F

Timișoara temperature yesterday

Maximum temperature yesterday: 48 °F (at 2:30 PM)
Minimum temperature yesterday: 32 °F (at 11:30 PM)
Average temperature yesterday: 42 °F

Past Weeks' High & Low Weather Summary

 TemperatureHumidityPressure
High59 °F (Feb 24, 2:30 PM)100% (Feb 17, 12:00 AM)30.72 "Hg (Feb 17, 12:00 AM)
Low19 °F (Feb 18, 5:30 AM)17% (Feb 17, 3:30 PM)29.62 "Hg (Feb 24, 3:30 PM)
Average42 °F82%30.05 "Hg
* Reported Midnight between Feb 16 and Feb 17 — Mar 4 12:30 AM, Timișoara, Weather by CustomWeather, © 2015

Note: Actual official high and low records may vary slightly from our data, if they occured in-between our weather recording intervals... More about our weather records

Advertising

Timișoara weather history for previous 24 hours

 ConditionsComfort  
Time TempWeatherWind HumidityBarometerVisibility
12:30 AM
Wed, Mar 4
30 °FClear.2 mph86%30.30 "Hg10 mi
12:00 AM30 °FClear.2 mph93%30.30 "Hg10 mi
11:30 PM
Tue, Mar 3
32 °FClear.1 mph80%30.30 "Hg10 mi
11:00 PM36 °FPassing clouds.3 mph75%30.30 "HgN/A
10:30 PM36 °FClear.3 mph75%30.30 "Hg10 mi
10:00 PM37 °FClear.5 mph65%30.30 "Hg10 mi
9:30 PM37 °FPassing clouds.3 mph65%30.30 "HgN/A
9:00 PM37 °FClear.3 mph75%30.27 "Hg10 mi
8:30 PM39 °FClear.No wind65%30.27 "Hg10 mi
8:00 PM39 °FClear.No wind65%30.27 "Hg10 mi
7:30 PM41 °FClear.2 mph61%30.24 "Hg10 mi
7:00 PM41 °FClear.5 mph66%30.24 "Hg10 mi
6:30 PM43 °FClear.6 mph61%30.24 "Hg10 mi
6:00 PM45 °FSunny.9 mph53%30.24 "Hg10 mi
5:30 PM46 °FSunny.13 mph50%30.21 "Hg10 mi
5:00 PM46 °FSunny.15 mph53%30.21 "Hg10 mi
4:30 PM46 °FSunny.16 mph50%30.21 "Hg10 mi
4:00 PM48 °FSunny.16 mph46%30.18 "Hg10 mi
3:30 PM48 °FSunny.17 mph50%30.18 "Hg10 mi
3:00 PM48 °FScattered clouds.16 mph50%30.18 "HgN/A
2:30 PM48 °FScattered clouds.16 mph54%30.18 "HgN/A
2:00 PM46 °FPartly sunny.13 mph57%30.18 "HgN/A
1:30 PM46 °FPartly sunny.15 mph62%30.18 "HgN/A
1:00 PM46 °FPartly sunny.13 mph57%30.18 "HgN/A
12:30 PM46 °FScattered clouds.18 mph57%30.15 "HgN/A
12:00 PM46 °FScattered clouds.15 mph62%30.15 "HgN/A
11:30 AM45 °FPassing clouds.14 mph61%30.15 "HgN/A
11:00 AM45 °FPassing clouds.16 mph66%30.15 "HgN/A
10:30 AM43 °FPassing clouds.12 mph76%30.15 "HgN/A
10:00 AM43 °FPassing clouds.12 mph76%30.12 "HgN/A
9:30 AM45 °FSunny.14 mph71%30.12 "Hg10 mi
9:00 AM41 °FSunny.6 mph81%30.09 "Hg10 mi
8:30 AM39 °FPassing clouds.3 mph87%30.07 "HgN/A
8:00 AM37 °FSunny.6 mph93%30.07 "Hg10 mi
7:30 AM36 °FSunny.6 mph100%30.04 "Hg10 mi
7:00 AM36 °FClear.3 mph100%30.01 "Hg10 mi
6:30 AM37 °FClear.6 mph100%30.01 "Hg10 mi
6:00 AM39 °FClear.8 mph93%30.01 "Hg10 mi
5:30 AM39 °FClear.7 mph93%29.98 "Hg10 mi
5:00 AM41 °FClear.7 mph93%29.95 "Hg10 mi
4:30 AM41 °FClear.7 mph93%29.95 "Hg10 mi
4:00 AM43 °FClear.8 mph93%29.92 "Hg10 mi
3:30 AM43 °FClear.7 mph93%29.92 "Hg10 mi
3:00 AM45 °FClear.6 mph93%29.89 "Hg10 mi
2:30 AM45 °FClear.6 mph93%29.89 "Hg10 mi
2:00 AM45 °FPassing clouds.6 mph100%29.89 "HgN/A
1:30 AM46 °FClear.7 mph93%29.86 "Hg10 mi
1:00 AM46 °FClear.5 mph93%29.83 "Hg10 mi
Weather by CustomWeather, © 2015

See weather overviewHow to use our weather pages